Driggs, ID

4:43 PM MDT on September 19, 2017 (GMT -0600)
Driggs

Weather History for KDIJ - August, 2014

Change the Weather History Date:

Friday, August 8, 2014

  Actual Average (KJAC) Record (KJAC)
Temperature  
Mean Temperature 58 °F -  
Max Temperature 72 °F 81 °F 92 °F (1990)
Min Temperature 45 °F 40 °F 29 °F (1980)
Degree Days  
Heating Degree Days 6    
Growing Degree Days 8 (Base 50)    
Moisture  
Dew Point 50 °F    
Average Humidity 77    
Maximum Humidity 100    
Minimum Humidity 39    
Precipitation  
Precipitation 0.29 in - - ()
Sea Level Pressure  
Sea Level Pressure 30.04 in    
Wind  
Wind Speed 5 mph (East)    
Max Wind Speed 22 mph    
Max Gust Speed 28 mph    
Visibility 8 miles    
Events Rain , Thunderstorm    
Averages and records for this station are not official NWS values.
T = Trace of Precipitation, MM = Missing Value Source: NWS Daily Summary

Daily Weather History Graph

Daily Weather History Graph

Search for Another Location

Airport or City:

Trip Planner

Search our weather history database for the weather conditions in past years. The results will help you decide how hot, cold, wet, or windy it might be!

Date:

Astronomy

Aug. 08, 2014 Rise Set
Actual Time 6:21 AM MDT 8:38 PM MDT
Civil Twilight 5:49 AM MDT 9:10 PM MDT
Nautical Twilight 5:09 AM MDT 9:49 PM MDT
Astronomical Twilight 4:25 AM MDT 10:33 PM MDT
Moon 6:53 PM MDT (8/8) 3:56 AM MDT (8/8)
Length of Visible Light 15h 20m
Length of Day
14h 17m
Waxing Gibbous, 94% of the Moon is Illuminated
Aug 8
Waxing Gibbous
Aug 10
Full
Aug 17
Last Quarter
Aug 25
New
Sep 2
First Quarter

Hourly Weather History & Observations

Time (MDT) Temp. Windchill Dew Point Humidity Pressure Visibility Wind Dir Wind Speed Gust Speed Precip Events Conditions
12:56 AM 50.9 °F - 50.0 °F 97% 29.96 in 10.0 mi ENE 3.5 mph - N/A   Mostly Cloudy
1:56 AM 52.9 °F - 48.9 °F 86% 29.96 in 10.0 mi ENE 4.6 mph - N/A   Overcast
2:56 AM 50.9 °F - 48.9 °F 93% 29.97 in 10.0 mi ENE 4.6 mph - N/A   Partly Cloudy
3:56 AM 47.8 °F - 46.9 °F 97% 29.97 in 10.0 mi ESE 4.6 mph - N/A   Clear
4:56 AM 46.9 °F - 45.9 °F 96% 29.99 in 10.0 mi SE 3.5 mph - N/A   Clear
5:56 AM 45.9 °F 44.6 °F 43.9 °F 93% 30.01 in 10.0 mi East 3.5 mph - N/A   Clear
6:56 AM 45.9 °F 44.6 °F 45.9 °F 100% 30.03 in 10.0 mi ESE 3.5 mph - N/A   Mostly Cloudy
7:56 AM 50.0 °F - 48.9 °F 96% 30.04 in 10.0 mi Calm Calm - N/A   Scattered Clouds
8:56 AM 55.9 °F - 50.0 °F 80% 30.02 in 10.0 mi SE 3.5 mph - N/A   Clear
9:56 AM 63.0 °F - 46.9 °F 56% 30.00 in 10.0 mi SSE 3.5 mph - N/A   Partly Cloudy
10:56 AM 65.8 °F - 47.8 °F 52% 29.99 in 10.0 mi Variable 4.6 mph - N/A   Clear
11:56 AM 68.9 °F - 48.9 °F 49% 29.97 in 10.0 mi NW 5.8 mph - N/A   Scattered Clouds
12:56 PM 70.9 °F - 47.8 °F 44% 29.96 in 10.0 mi NNE 4.6 mph - N/A   Clear
1:56 PM 72.0 °F - 45.9 °F 39% 29.95 in 10.0 mi Variable 4.6 mph - N/A   Partly Cloudy
2:56 PM 70.9 °F - 50.0 °F 48% 29.95 in 10.0 mi Variable 4.6 mph - N/A   Scattered Clouds
3:28 PM 60.8 °F - 50.0 °F 68% 30.20 in 2.0 mi West 21.9 mph 27.6 mph 0.06 in Rain Heavy Rain
3:30 PM 60.8 °F - 48.2 °F 63% 30.20 in 1.5 mi WNW 18.4 mph 27.6 mph 0.10 in Rain Heavy Rain
3:38 PM 59.0 °F - 51.8 °F 77% 30.20 in 1.5 mi NW 11.5 mph 24.2 mph 0.17 in Rain Heavy Rain
3:48 PM 59.0 °F - 51.8 °F 77% 30.20 in 1.8 mi NNW 6.9 mph - 0.21 in Rain , Thunderstorm Thunderstorms and Rain
3:56 PM 57.9 °F - 52.0 °F 81% 30.03 in 2.0 mi West 8.1 mph - 0.24 in Rain , Thunderstorm Thunderstorms and Rain
4:03 PM 59.0 °F - 51.8 °F 77% 30.20 in 1.5 mi West 5.8 mph - 0.03 in Rain , Thunderstorm Rain
4:09 PM 60.8 °F - 50.0 °F 68% 30.20 in 3.0 mi SSW 8.1 mph - 0.04 in Rain Light Rain
4:44 PM 57.2 °F - 51.8 °F 82% 30.19 in 10.0 mi East 10.4 mph - 0.05 in   Mostly Cloudy
4:56 PM 57.9 °F - 52.9 °F 83% 30.02 in 10.0 mi SE 6.9 mph - 0.05 in   Mostly Cloudy
5:56 PM 63.9 °F - 54.0 °F 70% 30.02 in 10.0 mi North 6.9 mph - 0.00 in   Partly Cloudy
6:56 PM 64.9 °F - 50.9 °F 60% 29.99 in 10.0 mi Calm Calm - N/A   Clear
7:56 PM 61.0 °F - 54.0 °F 78% 30.01 in 10.0 mi SW 4.6 mph - N/A   Clear
8:56 PM 56.8 °F - 54.9 °F 93% 30.01 in 10.0 mi South 4.6 mph - N/A   Scattered Clouds
9:56 PM 55.9 °F - 54.0 °F 93% 30.01 in 10.0 mi NE 5.8 mph - N/A   Clear
10:56 PM 55.9 °F - 54.0 °F 93% 29.99 in 10.0 mi Calm Calm - N/A   Partly Cloudy
11:56 PM 54.9 °F - 52.9 °F 93% 29.98 in 10.0 mi SSE 4.6 mph - N/A   Scattered Clouds